Flag for U.S.A. Weather past 2 weeks in Pullman, Washington, U.S.A.

Now
58 °F

Clear.


Feels Like: 58 °F
Forecast: 58 / 97 °F
Wind: No wind

Location: Pullman / Moscow Regional Airport

Current Time: Jul 31, 2015 at 12:38:43 AM

Latest Report: Jul 30, 2015 at 11:53 PM


Visibility: 10 mi

Pressure: 30.08 "Hg (27.63 "Hg at 715m altitude)

Humidity: 36%

Dew point: 31 °F

Location of PullmanLocation

Historic Weather in Pullman — Graph

°F

Pullman temperature yesterday

Maximum temperature yesterday: 95 °F (at 3:53 PM)
Minimum temperature yesterday: 54 °F (at 12:53 AM)
Average temperature yesterday: 76 °F

Past Weeks' High & Low Weather Summary

 TemperatureHumidityPressure
High95 °F (Jul 30, 3:53 PM)80% (Jul 17, 2:53 AM)30.26 "Hg (Jul 17, 2:53 AM)
Low43 °F (Jul 17, 4:53 AM)9% (Jul 30, 3:53 PM)29.73 "Hg (Jul 21, 7:53 PM)
Average68 °F38%29.99 "Hg
* Reported Jul 15 10:53 PM — Jul 30 10:53 PM, Pullman, Weather by CustomWeather, © 2015

Note: Actual official high and low records may vary slightly from our data, if they occured in-between our weather recording intervals... More about our weather records

Advertising

Pullman weather history for previous 24 hours

 ConditionsComfort  
Time TempWeatherWind HumidityBarometerVisibility
10:53 PM
Thu, Jul 30
60 °FClear.No wind32%30.07 "Hg10 mi
9:53 PM67 °FClear.No wind27%30.06 "Hg10 mi
8:53 PM68 °FSunny.No wind25%30.06 "Hg10 mi
7:53 PM88 °FSunny.No wind10%30.04 "Hg7 mi
6:53 PM91 °FSunny.3 mph10%30.04 "Hg10 mi
5:53 PM94 °FSunny.5 mph9%30.06 "Hg10 mi
4:53 PM93 °FSunny.No wind9%30.07 "Hg10 mi
3:53 PM95 °FSunny.7 mph9%30.08 "Hg10 mi
2:53 PM94 °FSunny.No wind10%30.11 "Hg10 mi
1:53 PM93 °FSunny.6 mph11%30.13 "Hg10 mi
12:53 PM91 °FSunny.6 mph12%30.14 "Hg10 mi
11:53 AM90 °FSunny.N/A15%30.16 "Hg10 mi
10:53 AM86 °FSunny.9 mph18%30.17 "Hg10 mi
9:53 AM82 °FSunny.12 mph23%30.17 "Hg10 mi
8:53 AM76 °FSunny.12 mph27%30.19 "Hg10 mi
7:53 AM73 °FSunny.10 mph30%30.16 "Hg10 mi
6:53 AM68 °FSunny.6 mph35%30.16 "Hg10 mi
5:53 AM62 °FClear.5 mph39%30.15 "Hg10 mi
4:53 AM62 °FClear.No wind37%30.14 "Hg10 mi
3:53 AM58 °FClear.3 mph43%30.14 "Hg10 mi
2:53 AM54 °FClear.No wind47%30.15 "Hg10 mi
1:53 AM54 °FClear.No wind45%30.15 "Hg10 mi
12:53 AM54 °FClear.No wind43%30.14 "Hg10 mi
Weather by CustomWeather, © 2015

See weather overviewHow to use our weather pages